CAPE
0 0 0 0 0 0 3 0 0 310 395 383 274 407 347 158 66 0 846 1148 1233 1615 2036 1961 2092 1634 1260 1332 1212 1294 1660 1622 1441 1458 1436 1383 1240 1058 904 877 984 843 637 767 961 1032 941 789 300
0 0 0 0 3 9 7 0 0 283 450 367 300 290 189 54 47 971 1067 1110 1192 1715 1888 1590 2108 1930 1459 1379 1477 1414 1558 1681 1534 1372 1225 1118 1186 1040 773 1052 1088 917 773 1016 1041 1100 948 899 598
0 0 0 0 8 16 2 0 88 351 490 424 279 194 152 171 394 733 904 1434 1426 1736 1786 1591 2138 1980 1580 1308 1372 1481 1482 1681 1564 1256 1047 934 1030 1102 1025 1140 1192 914 859 1037 1192 1243 1249 1207 742
0 0 0 0 16 3 0 0 57 154 243 263 198 183 178 313 442 413 1201 1390 1317 1590 1730 2111 2158 1978 1819 1335 1401 1636 1529 1745 1648 1297 1045 1019 904 1076 968 1043 1121 1167 754 799 1134 1395 1603 1337 758
0 0 0 0 13 0 0 0 0 64 163 421 285 335 266 150 957 1187 1138 967 915 1367 1744 2111 2139 1944 1830 1449 1474 1693 1642 1806 1830 1348 1007 987 1129 1183 1052 933 993 855 655 725 1096 1403 1679 1426 1035
0 0 0 0 0 0 0 0 0 17 435 385 237 43 43 330 814 1336 1245 452 877 1442 1953 2111 2203 2002 1815 1788 1782 1859 1705 1796 1876 1580 1252 1207 1277 1211 1135 961 909 868 736 785 975 1380 1504 1298 984
0 0 0 0 0 0 0 0 417 456 660 356 207 856 898 693 833 1431 1339 756 998 1549 1691 2017 2095 2013 1894 1829 1932 1913 1721 1754 1763 1564 1268 1083 1238 1206 1108 1006 711 749 781 1035 1139 1565 1590 1292 1023
0 0 0 0 0 0 0 0 180 776 614 474 1037 591 101 703 896 1265 939 810 947 1387 1551 1694 1974 1983 1843 1557 2015 1936 1777 1765 1714 1540 1310 1037 1041 1123 1112 810 689 547 668 796 1213 1533 1496 1200 998
0 0 0 0 0 0 0 0 8 390 697 889 1628 1103 522 894 1142 1055 945 853 775 866 1521 1544 1680 1740 1662 1586 1597 1907 1695 1822 1777 1682 1490 935 520 608 691 675 879 606 609 677 1087 1431 1358 1212 1052
0 0 0 0 0 0 0 0 0 624 794 1420 1701 1449 884 685 116 1167 1010 802 726 457 996 1372 1457 1514 1477 1665 1451 1313 1247 1453 1303 1273 1126 651 383 325 428 564 978 923 622 710 982 1469 1501 1263 751
0 0 0 0 0 0 0 0 0 877 1138 1497 1513 1415 863 500 51 929 1103 815 771 951 602 1021 1320 1257 1349 1384 1446 1162 1177 1215 1115 1061 940 582 344 366 411 276 633 622 541 104 554 1194 1337 1109 781
0 0 0 0 0 0 0 0 0 0 0 0 1421 1300 964 654 371 506 1301 974 787 791 1157 714 1058 1144 1188 1282 1262 988 1084 1050 933 908 879 567 330 195 163 106 22 370 271 38 87 508 1060 1056 864
0 0 0 0 0 0 0 0 0 0 0 0 1178 1387 1217 761 611 695 1472 1097 917 867 904 450 673 795 896 1090 1002 939 994 960 869 879 835 553 292 74 136 119 61 128 162 102 0 36 338 809 817
0 0 0 0 0 0 0 0 0 0 0 9 810 1270 1328 693 613 1075 1512 1452 1156 661 1005 709 582 462 617 816 790 770 882 850 823 731 702 612 227 22 80 241 256 217 216 114 70 0 0 59 295
0 0 0 0 0 0 0 0 0 0 0 0 549 578 1067 999 1008 1194 1665 1607 1306 1200 1166 1147 1007 845 826 658 545 477 567 598 589 536 528 483 308 61 11 54 218 376 447 354 241 72 67 46 53
0 0 0 0 0 0 0 0 0 0 0 0 0 60 572 658 840 702 0 282 841 954 1159 1524 1301 1113 775 929 744 461 516 703 528 452 504 426 376 259 149 339 388 396 499 451 320 224 114 107 108
0 0 0 0 0 0 0 0 0 0 0 0 0 0 0 0 0 0 0 449 1177 1344 1323 1463 1505 1157 1087 1127 962 859 702 1352 866 734 741 339 354 233 263 282 530 694 441 470 450 450 328 196 170
0 0 0 0 0 0 0 0 0 0 0 0 0 0 0 0 0 0 0 0 777 1427 1534 1414 1616 1299 1343 1297 1289 1241 1506 1561 1277 1105 845 481 402 383 363 219 286 503 314 629 733 484 504 334 282
0 0 0 0 0 0 0 0 0 0 0 0 0 0 0 0 0 0 0 0 17 915 1396 1465 1605 1371 1488 1340 1486 1776 1814 1716 1182 1082 854 781 686 560 363 0 2 41 435 706 520 543 480 331 363
0 0 0 0 0 0 0 0 0 0 0 0 0 0 0 0 0 0 0 0 0 206 1149 1442 1499 1521 1463 1385 1860 1607 1530 1333 1265 1122 1084 835 667 301 37 20 0 356 662 615 772 677 385 315 219
0 0 0 0 0 0 0 0 0 0 0 0 0 0 0 0 0 0 0 0 0 0 384 1256 1550 1635 1649 1459 1406 1144 1278 1251 1316 1170 866 582 392 360 146 17 0 686 910 601 643 452 137 84 213
0 0 0 0 0 0 0 0 0 0 0 0 0 0 0 0 0 0 0 0 0 0 0 676 1514 1687 1921 1860 961 1087 1094 1292 1206 684 748 465 517 367 78 193 523 914 1091 816 838 867 700 569 445
0 0 0 0 0 0 0 0 0 0 0 0 0 0 0 0 0 0 0 0 0 0 0 115 1416 1789 2276 2038 760 1009 1145 739 970 619 801 628 651 173 249 616 1047 1272 1188 967 833 895 978 921 756
0 0 0 0 0 0 0 0 0 0 0 0 0 0 0 0 0 0 0 0 0 0 0 0 1047 1564 1789 1728 838 1071 132 381 881 1185 1159 848 660 0 349 1073 1334 1389 1140 1103 696 935 1096 1096 1103
0 0 0 0 0 0 0 0 0 0 0 0 0 0 0 0 0 0 0 0 0 0 0 0 800 1137 1286 1117 883 698 84 311 590 857 893 967 654 90 321 1258 1302 1212 1102 1213 859 1149 1079 1068 982
0 0 0 0 0 0 0 0 0 0 0 0 0 0 0 0 0 0 0 0 0 0 0 0 353 994 1333 1172 901 761 363 389 511 696 802 945 488 228 696 1420 1517 1168 1015 1175 1228 1096 1082 1096 921
0 0 0 0 0 0 0 0 0 0 0 0 0 0 0 0 0 0 0 0 0 0 1 61 43 353 1366 1526 1205 1011 777 499 308 652 864 861 553 701 1013 1445 1681 1507 1235 1572 1537 1173 1013 768 723
6 4 0 0 0 0 0 0 0 0 0 0 0 0 0 0 0 0 0 0 0 11 78 163 185 317 542 1533 1786 1629 1428 844 695 530 820 690 765 864 913 1210 1552 1568 1513 1704 1677 1232 749 636 428
0 1 13 13 4 0 0 0 0 0 0 0 0 0 0 0 0 0 0 0 0 10 110 203 285 325 633 1401 1878 2050 2024 2054 2053 1621 1008 725 703 871 989 1075 1393 1519 1676 1725 1472 1032 272 153 1
5 0 1 0 0 0 0 0 0 0 0 0 0 0 0 0 0 0 0 0 10 17 17 48 363 439 601 1015 1436 1882 1893 1890 1822 1875 1680 1258 1170 957 844 1060 1129 1520 1675 1436 1179 916 27 0 0
CIN
-0 -0 -0 -0 -0 -0 -2 -0 -0 -43 -100 -141 -51 -125 -93 -39 -257 -0 -231 -294 -281 -316 -131 -113 -102 -144 -205 -177 -162 -129 -79 -74 -69 -57 -49 -39 -40 -52 -59 -37 -13 -19 -37 -14 -0 -0 -0 -0 -14
-0 -0 -0 -0 -21 -10 -0 -0 -0 -30 -57 -131 -51 -140 -96 -116 -469 -118 -141 -172 -278 -260 -161 -152 -82 -107 -186 -170 -134 -106 -71 -58 -62 -64 -78 -80 -48 -54 -79 -21 -5 -7 -10 -0 -0 -0 -1 -0 -2
-0 -0 -0 -10 -11 -3 -2 -0 -166 -66 -77 -126 -104 -106 -393 -394 -386 -214 -300 -110 -300 -223 -165 -148 -74 -93 -145 -156 -123 -97 -79 -55 -63 -82 -90 -97 -72 -45 -49 -33 -12 -16 -10 -3 -0 -0 -0 -0 -0
-0 -0 -0 -0 -6 -11 -0 -0 -162 -192 -94 -262 -19 -312 -497 -443 -401 -346 -152 -131 -192 -266 -156 -81 -91 -120 -132 -151 -136 -83 -83 -60 -62 -82 -104 -100 -97 -61 -57 -36 -20 -5 -30 -19 -5 -0 -0 -0 -0
-0 -0 -0 -0 -8 -0 -0 -0 -0 -240 -230 -172 -279 -324 -382 -358 -398 -265 -231 -164 -469 -293 -180 -84 -71 -107 -124 -174 -130 -70 -69 -51 -43 -61 -89 -95 -71 -46 -54 -62 -44 -42 -50 -31 -9 -0 -0 -0 -0
-0 -0 -0 -0 -0 -0 -0 -0 -0 -430 -283 -247 -198 -78 -38 -512 -433 -213 -149 -383 -387 -250 -160 -104 -89 -107 -129 -118 -94 -62 -61 -59 -52 -66 -90 -81 -60 -60 -61 -75 -76 -70 -74 -55 -28 -6 -0 -1 -1
-0 -0 -0 -0 -0 -0 -0 -0 -182 -297 -133 -60 -24 -303 -400 -424 -439 -150 -153 -469 -397 -240 -216 -203 -163 -146 -120 -98 -86 -72 -82 -61 -43 -60 -91 -99 -62 -57 -63 -66 -96 -71 -57 -22 -18 -0 -0 -0 -2
-0 -0 -0 -0 -0 -0 -0 -0 -40 -68 -102 -46 -148 -268 -52 -397 -300 -288 -210 -442 -430 -300 -230 -261 -217 -169 -138 -148 -75 -69 -86 -54 -38 -50 -65 -82 -77 -62 -54 -75 -84 -108 -82 -50 -9 -0 -0 -2 -1
-0 -0 -0 -0 -0 -0 -0 -0 -24 -14 -68 -65 -98 -254 -271 -273 -252 -242 -355 -431 -407 -357 -203 -217 -231 -206 -200 -165 -151 -102 -115 -68 -58 -57 -59 -128 -207 -173 -129 -111 -63 -98 -96 -74 -20 -0 -1 -2 -0
-0 -0 -0 -0 -0 -0 -0 -0 -0 -26 -55 -96 -126 -224 -168 -207 -423 -253 -348 -396 -377 -504 -322 -200 -202 -226 -220 -178 -184 -214 -199 -147 -160 -139 -140 -205 -253 -253 -197 -152 -72 -73 -102 -76 -46 -10 -5 -7 -20
-0 -0 -0 -0 -0 -0 -0 -0 -0 -11 -16 -32 -96 -160 -282 -60 -109 -333 -269 -104 -285 -48 -316 -313 -225 -247 -242 -236 -198 -235 -208 -183 -179 -201 -218 -254 -303 -263 -216 -223 -133 -125 -135 -230 -120 -39 -28 -41 -49
-0 -0 -0 -0 -0 -0 -0 -0 -0 -0 -0 -0 -57 -173 -289 -58 -42 -255 -258 -181 -82 -91 -46 -404 -321 -296 -255 -238 -245 -273 -232 -224 -239 -230 -241 -267 -278 -314 -313 -295 -345 -191 -204 -185 -241 -110 -39 -42 -55
-0 -0 -0 -0 -0 -0 -0 -0 -0 -0 -0 -0 -177 -104 -42 -73 -33 -37 -214 -139 -120 -147 -96 -22 -435 -376 -309 -275 -282 -284 -265 -255 -256 -237 -252 -269 -290 -334 -287 -262 -136 -163 -221 -241 -0 -277 -124 -56 -56
-0 -0 -0 -0 -0 -0 -0 -0 -0 -0 -0 -171 -148 -92 -75 -113 -23 -35 -145 -159 -113 -34 -52 -38 -36 -307 -107 -343 -324 -314 -262 -273 -256 -258 -266 -247 -278 -329 -265 -195 -173 -127 -66 -96 -55 -0 -0 -220 -127
-0 -0 -0 -0 -0 -0 -0 -0 -0 -0 -0 -0 -153 -124 -30 -24 -21 -61 -91 -74 -86 -99 -70 -33 -19 -12 -8 -304 -36 -243 -295 -290 -282 -268 -244 -226 -234 -338 -289 -219 -166 -106 -62 -42 -19 -109 -37 -48 -29
-0 -0 -0 -0 -0 -0 -0 -0 -0 -0 -0 -0 -0 -29 -77 -67 -75 -103 -0 -120 -293 -238 -113 -31 -22 -11 -22 -14 -29 -108 -66 -35 -1 -85 -19 -212 -184 -179 -241 -182 -141 -88 -37 -36 -46 -43 -24 -26 -17
-0 -0 -0 -0 -0 -0 -0 -0 -0 -0 -0 -0 -0 -0 -0 -0 -0 -0 -0 -163 -247 -267 -118 -44 -18 -11 -12 -8 -135 -43 -45 -21 -17 -16 -23 -120 -143 -126 -80 -126 -42 -20 -54 -56 -40 -34 -24 -33 -26
-0 -0 -0 -0 -0 -0 -0 -0 -0 -0 -0 -0 -0 -0 -0 -0 -0 -0 -0 -0 -201 -211 -157 -76 -34 -21 -12 -4 -159 -154 -19 -35 -24 -19 -18 -40 -32 -28 -25 -77 -46 -16 -34 -85 -50 -35 -82 -60 -36
-0 -0 -0 -0 -0 -0 -0 -0 -0 -0 -0 -0 -0 -0 -0 -0 -0 -0 -0 -0 -46 -298 -254 -200 -92 -72 -40 -27 -97 -45 -42 -51 -34 -26 -21 -33 -22 -29 -37 -0 -90 -199 -99 -34 -46 -45 -15 -26 -52
-0 -0 -0 -0 -0 -0 -0 -0 -0 -0 -0 -0 -0 -0 -0 -0 -0 -0 -0 -0 -0 -273 -304 -261 -194 -170 -67 -45 -89 -75 -73 -83 -59 -43 -39 -44 -45 -59 -156 -140 -0 -115 -47 -38 -47 -45 -52 -63 -117
-0 -0 -0 -0 -0 -0 -0 -0 -0 -0 -0 -0 -0 -0 -0 -0 -0 -0 -0 -0 -0 -0 -287 -342 -282 -196 -79 -44 -68 -136 -86 -67 -58 -64 -51 -54 -42 -39 -79 -169 -0 -37 -33 -32 -71 -83 -62 -101 -106
-0 -0 -0 -0 -0 -0 -0 -0 -0 -0 -0 -0 -0 -0 -0 -0 -0 -0 -0 -0 -0 -0 -43 -365 -305 -184 -74 -48 -171 -144 -150 -98 -82 -113 -65 -49 -46 -97 -330 -253 -48 -46 -43 -54 -63 -63 -56 -58 -38
-0 -0 -0 -0 -0 -0 -0 -0 -0 -0 -0 -0 -0 -0 -0 -0 -0 -0 -0 -0 -0 -0 -0 -573 -310 -203 -91 -69 -94 -123 -104 -155 -125 -120 -49 -57 -43 -121 -317 -200 -68 -62 -48 -52 -59 -80 -61 -49 -31
-0 -0 -0 -0 -0 -0 -0 -0 -0 -0 -0 -0 -0 -0 -0 -0 -0 -0 -0 -0 -0 -0 -0 -0 -369 -189 -114 -73 -225 -95 -207 -191 -129 -67 -36 -39 -44 -0 -332 -174 -88 -63 -57 -58 -75 -55 -36 -40 -33
-0 -0 -0 -0 -0 -0 -0 -0 -0 -0 -0 -0 -0 -0 -0 -0 -0 -0 -0 -0 -0 -0 -0 -0 -446 -337 -184 -158 -192 -120 -239 -123 -143 -95 -58 -34 -53 -416 -350 -169 -98 -90 -77 -57 -42 -51 -53 -44 -43
-0 -0 -0 -0 -0 -0 -0 -0 -0 -0 -0 -0 -0 -0 -0 -0 -0 -0 -0 -0 -0 -0 -0 -0 -518 -338 -280 -153 -221 -150 -125 -74 -79 -97 -97 -35 -55 -60 -250 -142 -105 -97 -94 -53 -27 -44 -52 -58 -58
-0 -0 -0 -0 -0 -0 -0 -0 -0 -0 -0 -0 -0 -0 -0 -0 -0 -0 -0 -0 -0 -0 -76 -401 -466 -287 -264 -218 -242 -160 -113 -50 -66 -93 -67 -46 -176 -172 -157 -111 -105 -79 -121 -53 -35 -53 -51 -84 -77
-11 -6 -0 -0 -0 -0 -0 -0 -0 -0 -0 -0 -0 -0 -0 -0 -0 -0 -0 -0 -0 -368 -313 -305 -327 -356 -381 -211 -134 -140 -125 -49 -31 -12 -54 -59 -110 -107 -94 -90 -76 -68 -54 -49 -26 -54 -80 -91 -96
-0 -8 -11 -6 -7 -0 -0 -0 -0 -0 -0 -0 -0 -0 -0 -0 -0 -0 -0 -0 -0 -133 -220 -170 -163 -186 -225 -170 -128 -83 -43 -51 -51 -24 -14 -35 -53 -73 -64 -60 -45 -46 -34 -31 -44 -48 -100 -113 -18
-14 -0 -17 -0 -0 -0 -0 -0 -0 -0 -0 -0 -0 -0 -0 -0 -0 -0 -0 -0 -30 -21 -19 -243 -102 -101 -136 -109 -82 -69 -69 -53 -44 -20 -22 -10 -12 -10 -57 -30 -34 -34 -33 -38 -28 -24 -117 -0 -0
Wind_Speed
nan nan nan nan nan nan nan nan nan 5 5 6 19 15 25 19 nan nan 22 30 20 17 9 5 3 4 8 10 10 13 15 17 17 19 19 17 17 19 18 15 16 17 19 20 20 23 27 28 28
nan nan nan nan nan nan nan nan nan 7 4 8 12 11 13 nan nan 21 13 11 28 12 10 7 1 5 10 11 14 13 14 17 20 20 19 19 18 19 21 21 20 20 19 19 19 22 25 26 25
nan nan nan nan nan nan nan nan nan 13 11 14 11 12 8 15 21 21 7 2 12 11 10 5 2 6 9 11 11 13 14 16 18 21 20 22 22 21 21 22 22 24 22 22 22 22 24 23 23
nan nan nan nan nan nan nan nan nan 18 8 3 10 11 4 11 14 11 14 12 11 9 11 6 9 8 10 9 12 13 16 19 19 21 24 25 26 24 23 23 23 23 24 22 22 21 22 23 24
nan nan nan nan nan nan nan nan nan nan 17 13 14 15 9 4 3 12 15 10 10 11 12 7 6 13 14 19 18 15 17 20 23 24 25 27 29 29 28 28 27 26 25 23 22 22 22 22 24
nan nan nan nan nan nan nan nan nan nan 21 18 16 nan nan 9 12 21 24 25 20 20 16 15 12 15 18 18 22 22 20 22 26 30 29 28 29 31 30 31 31 29 28 26 25 24 25 24 25
nan nan nan nan nan nan nan nan 37 30 30 18 24 22 15 14 22 24 25 25 20 20 22 22 21 22 23 21 25 25 25 25 26 30 31 31 31 31 31 32 33 33 31 28 26 25 26 27 27
nan nan nan nan nan nan nan nan 38 34 30 36 29 24 22 17 18 10 13 14 29 29 24 31 27 24 22 22 27 28 27 25 25 27 27 29 31 31 29 29 31 32 33 32 29 28 28 28 28
nan nan nan nan nan nan nan nan nan 38 42 33 33 34 24 28 18 15 8 17 21 20 24 24 24 23 22 19 23 30 27 26 27 29 28 25 24 26 29 30 29 30 32 32 31 29 28 27 27
nan nan nan nan nan nan nan nan nan 42 40 39 28 23 23 23 12 20 15 19 18 18 17 15 20 23 24 22 14 23 19 24 20 22 26 26 27 28 28 27 30 30 29 30 31 30 29 28 27
nan nan nan nan nan nan nan nan nan 42 35 30 20 15 23 16 nan 15 15 20 21 18 18 21 20 21 16 17 17 19 20 22 19 20 22 24 21 25 34 31 27 31 28 27 27 28 30 31 31
nan nan nan nan nan nan nan nan nan nan nan nan 14 19 20 20 14 12 17 19 20 19 20 24 23 20 14 17 18 17 17 18 19 23 23 28 30 29 28 27 nan 26 28 nan nan 29 29 30 33
nan nan nan nan nan nan nan nan nan nan nan nan 29 21 18 20 16 5 12 18 21 19 21 19 22 18 12 18 19 19 20 20 21 22 22 26 23 nan 24 21 nan 26 27 26 nan nan 31 30 31
nan nan nan nan nan nan nan nan nan nan nan nan 34 24 19 21 16 9 9 16 17 17 15 15 15 13 8 13 17 17 17 20 19 18 22 26 22 nan nan 22 24 28 24 26 nan nan nan nan 28
nan nan nan nan nan nan nan nan nan nan nan nan 37 27 20 23 18 13 7 14 15 15 18 15 14 14 10 8 13 15 17 20 18 15 19 22 24 nan nan nan 26 26 25 25 26 nan nan nan nan
nan nan nan nan nan nan nan nan nan nan nan nan nan nan 27 24 26 18 nan 17 17 17 19 19 17 18 16 13 14 14 17 20 17 16 19 22 23 22 22 24 23 25 24 16 17 22 21 26 26
nan nan nan nan nan nan nan nan nan nan nan nan nan nan nan nan nan nan nan 22 20 20 22 22 19 21 22 17 18 18 20 21 17 20 21 25 25 25 25 23 23 25 18 19 20 21 23 27 28
nan nan nan nan nan nan nan nan nan nan nan nan nan nan nan nan nan nan nan nan 24 21 24 27 24 22 24 26 26 25 27 22 20 20 22 24 24 27 26 24 21 17 24 24 21 21 20 25 29
nan nan nan nan nan nan nan nan nan nan nan nan nan nan nan nan nan nan nan nan nan 22 24 28 29 26 30 30 29 27 24 24 23 21 22 22 24 28 28 nan nan nan 22 20 19 22 20 19 23
nan nan nan nan nan nan nan nan nan nan nan nan nan nan nan nan nan nan nan nan nan 27 24 27 28 32 31 32 32 30 28 26 26 26 25 23 27 30 nan nan nan 24 23 20 20 20 21 21 22
nan nan nan nan nan nan nan nan nan nan nan nan nan nan nan nan nan nan nan nan nan nan 27 27 27 32 32 36 42 39 36 31 30 29 28 26 29 29 28 nan nan 25 23 19 19 21 22 nan 21
nan nan nan nan nan nan nan nan nan nan nan nan nan nan nan nan nan nan nan nan nan nan nan 29 31 32 32 40 42 41 36 33 30 31 30 31 30 28 nan 28 27 26 25 20 20 20 21 23 22
nan nan nan nan nan nan nan nan nan nan nan nan nan nan nan nan nan nan nan nan nan nan nan 30 27 28 30 34 39 41 36 32 35 35 33 33 30 29 28 28 28 27 25 20 21 20 20 21 24
nan nan nan nan nan nan nan nan nan nan nan nan nan nan nan nan nan nan nan nan nan nan nan nan 30 26 26 30 33 38 39 40 39 36 33 32 33 nan 29 29 29 28 26 22 21 21 23 23 24
nan nan nan nan nan nan nan nan nan nan nan nan nan nan nan nan nan nan nan nan nan nan nan nan 33 30 30 28 30 33 nan 42 39 37 35 36 34 nan 29 29 30 31 26 22 23 22 23 24 25
nan nan nan nan nan nan nan nan nan nan nan nan nan nan nan nan nan nan nan nan nan nan nan nan 38 33 32 31 30 34 42 43 42 39 38 36 35 31 32 29 29 30 31 28 27 26 25 23 23
nan nan nan nan nan nan nan nan nan nan nan nan nan nan nan nan nan nan nan nan nan nan nan nan nan 38 37 36 41 44 44 46 46 42 40 38 37 36 34 32 30 30 33 32 32 31 30 27 23
nan nan nan nan nan nan nan nan nan nan nan nan nan nan nan nan nan nan nan nan nan nan nan 53 49 46 42 40 41 40 43 45 44 47 42 39 37 41 39 37 35 35 34 35 36 36 35 34 28
nan nan nan nan nan nan nan nan nan nan nan nan nan nan nan nan nan nan nan nan nan nan 59 59 62 57 53 56 43 36 43 45 48 47 44 39 43 43 40 37 39 39 37 37 38 37 36 37 nan
nan nan nan nan nan nan nan nan nan nan nan nan nan nan nan nan nan nan nan nan nan nan nan nan 59 56 51 52 47 44 47 46 44 45 47 41 40 42 42 41 40 40 42 42 39 37 nan nan nan
Wind_Direction
nan nan nan nan nan nan nan nan nan 260 310 343 316 325 355 342 nan nan 310 297 203 230 219 153 63 327 287 288 285 284 287 289 291 292 292 289 292 297 299 296 302 309 313 315 315 313 311 309 308
nan nan nan nan nan nan nan nan nan 253 199 273 263 296 318 nan nan 4 319 121 169 212 223 183 131 285 290 294 288 282 284 285 287 288 289 292 294 299 303 305 304 305 304 309 314 317 317 311 312
nan nan nan nan nan nan nan nan nan 232 225 227 269 267 283 321 335 351 59 126 194 192 207 193 289 275 279 290 290 295 291 283 288 291 289 289 291 290 292 296 301 307 309 312 317 324 323 313 312
nan nan nan nan nan nan nan nan nan 268 213 285 299 287 309 327 347 354 314 299 277 234 232 293 317 296 299 296 294 290 294 294 292 293 292 292 292 291 293 293 294 298 302 308 312 315 318 319 307
nan nan nan nan nan nan nan nan nan nan 276 302 308 316 308 252 1 308 318 285 259 244 249 262 289 297 299 305 301 297 298 296 291 289 291 295 295 296 299 298 296 296 297 298 303 305 309 314 312
nan nan nan nan nan nan nan nan nan nan 259 284 300 nan nan 280 313 311 297 274 255 278 279 272 286 279 281 291 294 296 295 294 295 296 295 295 296 297 297 297 296 295 296 299 301 302 304 307 307
nan nan nan nan nan nan nan nan 250 254 265 285 291 275 283 291 327 310 285 263 268 277 264 270 261 269 281 286 290 292 288 286 285 286 289 292 292 292 294 293 292 291 289 287 290 296 301 303 303
nan nan nan nan nan nan nan nan 255 263 270 267 286 287 290 303 302 305 335 278 262 254 258 280 272 271 282 292 304 303 302 305 304 298 296 297 296 296 296 296 295 294 293 291 289 288 290 292 293
nan nan nan nan nan nan nan nan nan 262 273 273 284 288 275 274 280 284 237 236 263 258 254 275 290 290 285 281 305 305 311 311 307 303 301 297 289 295 298 294 292 293 294 294 295 294 292 291 291
nan nan nan nan nan nan nan nan nan 261 265 266 274 267 288 281 280 299 294 271 289 286 265 280 304 300 295 290 287 307 286 293 295 295 291 286 287 286 286 288 292 292 291 293 295 297 298 294 285
nan nan nan nan nan nan nan nan nan 264 263 284 305 305 304 289 nan 293 284 295 308 292 299 296 307 299 298 290 292 275 279 277 270 297 290 291 277 289 286 280 284 277 283 275 279 283 285 287 283
nan nan nan nan nan nan nan nan nan nan nan nan 292 318 300 296 291 302 301 297 289 297 287 288 289 294 302 274 283 268 291 277 288 298 286 288 286 295 295 286 nan 286 285 nan nan 272 273 280 282
nan nan nan nan nan nan nan nan nan nan nan nan 277 293 308 288 287 294 293 288 280 290 290 292 280 295 280 266 270 269 288 290 295 297 301 294 299 nan 301 290 nan 288 287 290 nan nan 279 270 274
nan nan nan nan nan nan nan nan nan nan nan nan 295 306 305 301 309 298 259 281 284 280 295 284 291 296 280 272 276 282 282 288 291 302 304 304 304 nan nan 300 298 296 294 282 nan nan nan nan 266
nan nan nan nan nan nan nan nan nan nan nan nan 300 305 306 307 295 311 318 298 305 303 301 308 301 293 308 294 279 278 287 288 295 307 296 302 305 nan nan nan 306 307 306 306 290 nan nan nan nan
nan nan nan nan nan nan nan nan nan nan nan nan nan nan 296 296 304 303 nan 280 292 288 304 297 302 303 305 300 287 274 276 282 292 291 290 293 295 304 305 301 304 309 304 298 302 305 289 277 282
nan nan nan nan nan nan nan nan nan nan nan nan nan nan nan nan nan nan nan 296 289 293 290 288 296 303 303 284 272 274 278 275 284 281 282 288 294 298 296 297 302 297 296 300 293 297 287 277 277
nan nan nan nan nan nan nan nan nan nan nan nan nan nan nan nan nan nan nan nan 286 286 294 297 291 293 286 270 264 262 262 269 270 280 286 295 299 298 297 299 300 286 293 290 293 291 285 279 280
nan nan nan nan nan nan nan nan nan nan nan nan nan nan nan nan nan nan nan nan nan 263 279 292 291 286 278 270 268 264 273 277 277 283 289 294 292 294 295 nan nan nan 293 292 293 290 285 275 277
nan nan nan nan nan nan nan nan nan nan nan nan nan nan nan nan nan nan nan nan nan 291 285 282 294 287 287 284 278 269 274 271 274 278 280 287 288 291 nan nan nan 292 285 286 287 286 285 281 275
nan nan nan nan nan nan nan nan nan nan nan nan nan nan nan nan nan nan nan nan nan nan 289 288 291 288 288 286 269 265 264 262 268 276 281 286 288 290 294 nan nan 293 284 283 283 282 284 nan 281
nan nan nan nan nan nan nan nan nan nan nan nan nan nan nan nan nan nan nan nan nan nan nan 292 289 286 283 276 280 286 285 280 278 280 283 280 285 288 nan 290 285 282 278 285 282 284 286 288 291
nan nan nan nan nan nan nan nan nan nan nan nan nan nan nan nan nan nan nan nan nan nan nan 292 289 287 288 284 283 282 284 283 274 273 279 277 277 281 282 284 285 281 278 279 282 284 293 297 297
nan nan nan nan nan nan nan nan nan nan nan nan nan nan nan nan nan nan nan nan nan nan nan nan 289 295 293 289 282 287 287 277 272 271 272 273 273 nan 278 279 278 274 272 277 285 295 301 301 295
nan nan nan nan nan nan nan nan nan nan nan nan nan nan nan nan nan nan nan nan nan nan nan nan 280 285 287 295 291 292 nan 288 289 284 279 275 271 nan 279 278 276 273 273 274 276 282 287 292 294
nan nan nan nan nan nan nan nan nan nan nan nan nan nan nan nan nan nan nan nan nan nan nan nan 275 277 283 291 296 289 281 281 280 282 277 275 275 274 277 277 273 275 275 273 272 271 278 286 291
nan nan nan nan nan nan nan nan nan nan nan nan nan nan nan nan nan nan nan nan nan nan nan nan nan 248 275 286 289 281 278 275 273 274 272 274 276 272 271 272 268 264 268 271 272 269 274 277 281
nan nan nan nan nan nan nan nan nan nan nan nan nan nan nan nan nan nan nan nan nan nan nan 254 254 256 267 271 282 285 274 270 268 266 268 269 270 268 269 269 267 262 261 264 268 267 270 276 275
nan nan nan nan nan nan nan nan nan nan nan nan nan nan nan nan nan nan nan nan nan nan 258 254 252 253 258 267 267 269 288 278 273 273 267 269 266 268 272 274 273 269 268 264 265 267 271 274 nan
nan nan nan nan nan nan nan nan nan nan nan nan nan nan nan nan nan nan nan nan nan nan nan nan 256 251 257 255 259 263 272 264 269 272 271 268 272 270 272 271 274 273 269 266 265 266 nan nan nan